DW0893 Weather Reports


time (UTC)temp
C
wind
direction
speed
KPH
gust
KPH
rain 1hr
cm
rain 24hr
cm
rain mn
cm
humidity
%
barometer
mb
20260505200059 13 31 3.2 12.9 0.00 0.00 0.00 70 1012.0
20260505195600 13 29 3.2 12.9 0.00 0.00 0.00 70 1012.1
20260505195059 13 0 4.8 9.7 0.00 0.00 0.00 70 1012.0
20260505194559 13 16 1.6 11.3 0.00 0.00 0.00 70 1011.8
20260505194056 13 16 1.6 11.3 0.00 0.00 0.00 70 1011.9
20260505193557 13 0 0.0 8.0 0.00 0.00 0.00 69 1011.8
20260505193057 13 0 1.6 9.7 0.00 0.00 0.00 69 1011.8
20260505192559 13 0 3.2 11.3 0.00 0.00 0.00 69 1011.8
20260505192056 13 22 1.6 11.3 0.00 0.00 0.00 69 1011.8
20260505191611 13 23 3.2 9.7 0.00 0.00 0.00 69 1011.7
20260505191056 13 30 3.2 14.5 0.00 0.00 0.00 68 1011.7
20260505190556 13 14 3.2 14.5 0.00 0.00 0.00 68 1011.6
20260505190057 13 29 3.2 14.5 0.00 0.00 0.00 68 1011.7
20260505185556 13 28 3.2 14.5 0.00 0.00 0.00 68 1011.6
20260505185058 13 10 3.2 12.9 0.00 0.00 0.00 67 1011.6
20260505184559 13 25 3.2 14.5 0.00 0.00 0.00 67 1011.6
20260505184057 13 24 4.8 14.5 0.00 0.00 0.00 67 1011.6
20260505183557 13 3 3.2 16.1 0.00 0.00 0.00 67 1011.6
20260505183058 13 1 4.8 16.1 0.00 0.00 0.00 66 1011.6
20260505182556 13 44 4.8 16.1 0.00 0.00 0.00 66 1011.5
20260505182056 13 18 6.4 16.1 0.00 0.00 0.00 66 1011.6
20260505181558 14 5 3.2 16.1 0.00 0.00 0.00 66 1011.5
20260505181056 14 342 4.8 16.1 0.00 0.00 0.00 66 1011.6
20260505180557 14 14 4.8 12.9 0.00 0.00 0.00 66 1011.6
20260505175559 13 7 1.6 14.5 0.00 0.00 0.00 67 1011.5
20260505175059 13 5 4.8 14.5 0.00 0.00 0.00 67 1011.5
20260505174605 13 20 1.6 12.9 0.00 0.00 0.00 68 1011.6
20260505174058 13 9 1.6 8.0 0.00 0.00 0.00 68 1011.5
20260505173556 13 8 0.0 8.0 0.00 0.00 0.00 68 1011.6
20260505173059 13 0 1.6 11.3 0.00 0.00 0.00 68 1011.7
20260505172556 13 1 3.2 11.3 0.00 0.00 0.00 68 1011.7
20260505172057 13 0 3.2 8.0 0.00 0.00 0.00 69 1011.7
20260505171557 13 7 1.6 8.0 0.00 0.00 0.00 69 1011.6
20260505171058 13 0 3.2 12.9 0.00 0.00 0.00 68 1011.7
20260505170556 13 9 4.8 14.5 0.00 0.00 0.00 68 1011.7
20260505170109 13 0 1.6 14.5 0.00 0.00 0.00 68 1011.7
20260505165556 14 18 4.8 14.5 0.00 0.00 0.00 68 1011.7
20260505165058 14 13 4.8 12.9 0.00 0.00 0.00 67 1011.8
20260505164555 14 8 1.6 12.9 0.00 0.00 0.00 68 1011.7
20260505164058 14 5 3.2 12.9 0.00 0.00 0.00 67 1011.8
20260505163559 14 350 3.2 11.3 0.00 0.00 0.00 67 1011.7
20260505163059 14 0 4.8 14.5 0.00 0.00 0.00 66 1011.7
20260505162559 14 24 4.8 16.1 0.00 0.00 0.00 66 1011.9
20260505162057 15 19 6.4 16.1 0.00 0.00 0.00 66 1011.8
20260505161615 15 355 8.0 16.1 0.00 0.00 0.00 65 1011.8
20260505161056 15 12 6.4 14.5 0.00 0.00 0.00 64 1011.9
20260505160556 15 4 6.4 14.5 0.00 0.00 0.00 63 1011.8
20260505153105 15 28 1.6 12.9 0.00 0.00 0.00 64 1011.8
20260505152558 15 28 4.8 12.9 0.00 0.00 0.00 63 1011.9
20260505152058 15 18 4.8 12.9 0.00 0.00 0.00 64 1011.9
20260505151605 15 36 1.6 8.0 0.00 0.00 0.00 65 1011.8
20260505151059 15 37 1.6 6.4 0.00 0.00 0.00 64 1012.0
20260505150558 14 0 1.6 6.4 0.00 0.00 0.00 64 1012.1
20260505140556 14 12 3.2 16.1 0.00 0.00 0.00 65 1012.2
20260505140104 14 11 6.4 14.5 0.00 0.00 0.00 65 1012.2
20260505124557 15 19 6.4 14.5 0.00 0.00 0.00 64 1012.4
20260505124057 15 0 3.2 8.0 0.00 0.00 0.00 64 1012.4
20260505123558 15 0 1.6 8.0 0.00 0.00 0.00 64 1012.4
20260505123059 15 0 3.2 12.9 0.00 0.00 0.00 65 1012.4
20260505122556 15 360 3.2 12.9 0.00 0.00 0.00 66 1012.4
20260505122056 15 350 3.2 14.5 0.00 0.00 0.00 65 1012.4
20260505121625 15 42 4.8 14.5 0.00 0.00 0.00 65 1012.4
20260505121056 15 9 3.2 14.5 0.00 0.00 0.00 67 1012.4
20260505120556 15 355 6.4 14.5 0.00 0.00 0.00 66 1012.4
20260505120058 15 355 6.4 16.1 0.00 0.00 0.00 68 1012.4
20260505115600 15 14 3.2 16.1 0.00 0.00 0.00 68 1012.5
20260505115058 14 5 6.4 16.1 0.00 0.00 0.00 68 1012.5
20260505114556 14 30 6.4 14.5 0.00 0.00 0.00 68 1012.6
20260505114056 14 0 1.6 14.5 0.00 0.00 0.00 71 1012.6
20260505113555 13 39 4.8 14.5 0.00 0.00 0.00 71 1012.5
20260505113058 13 355 4.8 14.5 0.00 0.00 0.00 73 1012.6
20260505112556 13 12 4.8 12.9 0.00 0.00 0.00 75 1012.7
20260505112056 12 18 3.2 9.7 0.00 0.00 0.00 75 1012.9
20260505111557 12 42 3.2 9.7 0.00 0.00 0.00 75 1012.9
20260505111056 12 43 3.2 11.3 0.00 0.00 0.00 75 1012.8
20260505110557 12 43 3.2 11.3 0.00 0.00 0.00 75 1012.9
20260505102055 12 22 4.8 14.5 0.00 0.00 0.00 77 1013.0
20260505101559 12 45 3.2 14.5 0.00 0.00 0.00 78 1013.1
20260505101055 12 43 6.4 14.5 0.00 0.00 0.00 78 1013.1
20260505100557 12 33 4.8 12.9 0.00 0.00 0.00 78 1013.0
20260505095600 12 16 1.6 12.9 0.00 0.00 0.00 79 1013.1
20260505095056 11 0 1.6 16.1 0.00 0.00 0.00 78 1013.0
20260505094601 12 53 6.4 16.1 0.00 0.00 0.00 78 1013.1
20260505094056 12 7 4.8 16.1 0.00 0.00 0.00 78 1013.2
20260505093556 12 19 4.8 12.9 0.00 0.00 0.00 79 1013.1
20260505093100 12 20 3.2 11.3 0.00 0.00 0.00 80 1013.1
20260505092601 12 38 4.8 12.9 0.00 0.00 0.00 80 1013.0
20260505092056 11 31 4.8 12.9 0.00 0.00 0.00 80 1013.1
20260505091557 11 28 1.6 9.7 0.00 0.00 0.00 80 1013.2
20260505091100 11 31 3.2 16.1 0.00 0.00 0.00 80 1013.2
20260505090556 11 32 4.8 16.1 0.00 0.00 0.00 80 1013.1
20260505090106 11 44 8.0 16.1 0.00 0.00 0.00 81 1013.3
20260505085556 11 39 4.8 14.5 0.00 0.00 0.00 81 1013.3
20260505085057 11 15 4.8 14.5 0.00 0.00 0.00 82 1013.4
20260505084559 11 25 1.6 16.1 0.00 0.00 0.00 83 1013.4
20260505084057 11 29 4.8 16.1 0.00 0.00 0.00 82 1013.3
20260505083556 11 332 6.4 12.9 0.00 0.00 0.00 83 1013.3
20260505083104 11 51 4.8 16.1 0.00 0.00 0.00 83 1013.4
20260505082556 11 27 4.8 16.1 0.00 0.00 0.00 84 1013.4
20260505082056 11 21 8.0 16.1 0.00 0.00 0.00 84 1013.3
20260505081602 11 17 3.2 16.1 0.00 0.00 0.00 84 1013.4
20260505081058 11 17 6.4 16.1 0.00 0.00 0.00 84 1013.5
20260505080558 11 33 6.4 16.1 0.00 0.00 0.00 84 1013.3
20260505075557 11 27 6.4 16.1 0.00 0.00 0.00 84 1013.4
20260505075056 11 31 4.8 14.5 0.00 0.00 0.00 84 1013.4
20260505074609 11 28 4.8 16.1 0.00 0.00 0.00 84 1013.3
20260505074059 11 24 6.4 16.1 0.00 0.00 0.00 84 1013.3
20260505073557 11 18 4.8 16.1 0.00 0.00 0.00 84 1013.3
20260505073059 11 18 4.8 16.1 0.00 0.00 0.00 85 1013.6
20260505072558 11 23 3.2 9.7 0.00 0.00 0.00 85 1013.4
20260505072055 11 0 1.6 12.9 0.00 0.00 0.00 85 1013.5
20260505071558 11 18 4.8 16.1 0.00 0.00 0.00 86 1013.5
20260505071056 11 20 3.2 16.1 0.00 0.00 0.00 86 1013.4
20260505070557 11 20 6.4 16.1 0.00 0.00 0.00 86 1013.4
20260505070059 11 39 3.2 11.3 0.00 0.00 0.00 87 1013.4
20260505065557 11 39 3.2 11.3 0.00 0.00 0.00 87 1013.5
20260505065056 11 27 3.2 9.7 0.00 0.00 0.00 88 1013.5
20260505064600 11 27 4.8 11.3 0.00 0.00 0.00 88 1013.5
20260505064056 11 28 1.6 11.3 0.00 0.00 0.00 89 1013.4
20260505063557 11 36 4.8 11.3 0.00 0.00 0.00 89 1013.5
20260505063059 10 36 3.2 9.7 0.00 0.00 0.00 90 1013.4
20260505062558 10 36 1.6 9.7 0.00 0.00 0.00 90 1013.4
20260505062058 10 35 0.0 8.0 0.00 0.00 0.00 90 1013.3
20260505061607 10 34 1.6 8.0 0.00 0.00 0.00 90 1013.3
20260505061058 10 34 0.0 8.0 0.00 0.00 0.00 90 1013.2
20260505060558 10 34 1.6 8.0 0.00 0.00 0.00 90 1013.3
20260505060103 10 0 3.2 8.0 0.00 0.00 0.00 90 1013.3
20260505055559 10 34 1.6 6.4 0.00 0.00 0.00 90 1013.3
20260505055058 10 34 1.6 6.4 0.00 0.00 0.00 90 1013.4
20260505054559 10 34 0.0 9.7 0.00 0.00 0.00 90 1013.3
20260505054058 10 0 1.6 9.7 0.00 0.00 0.00 90 1013.3
20260505053557 10 0 0.0 8.0 0.00 0.00 0.00 90 1013.4
20260505053106 10 34 3.2 8.0 0.00 0.00 0.00 90 1013.5
20260505052602 10 0 1.6 8.0 0.00 0.00 0.00 90 1013.5
20260505052056 10 0 0.0 8.0 0.00 0.00 0.00 90 1013.5
20260505051557 10 0 1.6 8.0 0.00 0.00 0.00 90 1013.4
20260505051058 10 34 1.6 6.4 0.00 0.00 0.00 90 1013.4
20260505050558 10 0 1.6 11.3 0.00 0.00 0.00 90 1013.5
20260505041558 10 41 1.6 9.7 0.00 0.00 0.00 89 1013.6
20260505041059 10 42 0.0 9.7 0.00 0.00 0.00 89 1013.7
20260505040601 10 44 3.2 8.0 0.00 0.00 0.00 89 1013.7
20260505040057 10 46 0.0 4.8 0.00 0.00 0.00 89 1013.6
20260505035558 10 46 0.0 6.4 0.00 0.00 0.00 88 1013.7
20260505035057 10 0 1.6 6.4 0.00 0.00 0.00 88 1013.7
20260505034601 10 0 1.6 4.8 0.00 0.00 0.00 88 1013.7
20260505034058 10 0 0.0 4.8 0.00 0.00 0.00 88 1013.7
20260505033557 10 0 0.0 4.8 0.00 0.00 0.00 88 1013.7
20260505033114 10 0 0.0 3.2 0.00 0.00 0.00 88 1013.7
20260505032557 10 0 0.0 4.8 0.00 0.00 0.00 88 1013.6
20260505032056 10 0 0.0 4.8 0.00 0.00 0.00 88 1013.8
20260505031559 10 0 0.0 1.6 0.00 0.00 0.00 88 1013.6
20260505031100 10 0 0.0 1.6 0.00 0.00 0.00 88 1013.7
20260505030559 10 0 0.0 0.0 0.00 0.00 0.00 87 1013.6
20260505030105 10 0 0.0 4.8 0.00 0.00 0.00 87 1013.6
20260505025556 10 0 0.0 4.8 0.00 0.00 0.00 87 1013.7
20260505025057 10 0 0.0 4.8 0.00 0.00 0.00 87 1013.8
20260505024604 10 0 0.0 4.8 0.00 0.00 0.00 87 1013.7
20260505024056 10 0 0.0 8.0 0.00 0.00 0.00 87 1013.7
20260505023556 10 46 1.6 8.0 0.00 0.00 0.00 87 1013.6
20260505023107 10 46 1.6 6.4 0.00 0.00 0.00 87 1013.7
20260505022556 10 46 0.0 6.4 0.00 0.00 0.00 87 1013.8
20260505022059 10 46 1.6 6.4 0.00 0.00 0.00 87 1013.7
20260505021557 10 47 0.0 6.4 0.00 0.00 0.00 86 1013.7
20260505021056 10 0 1.6 6.4 0.00 0.00 0.00 86 1013.7
20260505020556 10 0 0.0 6.4 0.00 0.00 0.00 87 1013.7
20260505020058 10 0 0.0 3.2 0.00 0.00 0.00 86 1013.8
20260505015559 11 0 0.0 4.8 0.00 0.00 0.00 86 1013.9
20260505015059 11 0 0.0 4.8 0.00 0.00 0.00 86 1013.9
20260505014557 11 47 0.0 4.8 0.00 0.00 0.00 86 1013.9
20260505014055 11 0 0.0 3.2 0.00 0.00 0.00 86 1013.9
20260505013558 11 0 0.0 4.8 0.00 0.00 0.00 86 1014.0
20260505013058 11 0 0.0 6.4 0.00 0.00 0.00 86 1014.3
20260505012556 11 0 0.0 6.4 0.00 0.00 0.00 85 1014.1
20260505012056 11 47 0.0 6.4 0.00 0.00 0.00 85 1014.1
20260505011601 11 47 1.6 6.4 0.00 0.00 0.00 85 1014.1
20260505011100 11 47 1.6 6.4 0.00 0.00 0.00 85 1014.2
20260505010556 11 0 1.6 6.4 0.00 0.00 0.00 85 1014.2
20260505005556 11 47 0.0 3.2 0.00 0.00 0.00 85 1014.2
20260505005056 11 0 0.0 3.2 0.00 0.00 0.00 85 1014.4
20260505004602 11 0 0.0 4.8 0.00 0.00 0.00 85 1014.3
20260505004100 11 0 0.0 6.4 0.00 0.00 0.00 85 1014.4
20260505003559 11 0 0.0 6.4 0.00 0.00 0.00 84 1014.2
20260505003102 11 47 0.0 6.4 0.00 0.00 0.00 84 1014.2
20260505002557 11 47 0.0 6.4 0.00 0.00 0.00 84 1014.3
20260505002056 11 0 0.0 6.4 0.00 0.00 0.00 84 1014.5
20260505001558 11 0 1.6 6.4 0.00 0.00 0.00 84 1014.5
20260505001101 11 0 0.0 4.8 0.00 0.00 0.00 84 1014.5
20260505000558 11 46 0.0 8.0 0.00 0.00 0.00 84 1014.5
20260505000101 11 0 0.0 11.3 0.00 0.00 0.00 84 1014.6
20260504235556 11 45 4.8 11.3 0.00 0.00 0.00 84 1014.5
20260504235058 11 46 1.6 11.3 0.00 0.00 0.00 84 1014.6
20260504234619 11 46 3.2 11.3 0.00 0.00 0.00 84 1014.7
20260504234056 11 47 3.2 9.7 0.00 0.00 0.00 84 1014.6
20260504233556 11 0 3.2 9.7 0.00 0.00 0.00 84 1014.5
20260504233058 11 47 1.6 9.7 0.00 0.00 0.00 84 1014.6
20260504232559 11 47 4.8 14.5 0.00 0.00 0.00 84 1014.6
20260504232056 11 45 4.8 14.5 0.00 0.00 0.00 84 1014.6
20260504231605 11 49 3.2 11.3 0.00 0.00 0.00 84 1014.8
20260504231056 11 0 1.6 9.7 0.00 0.00 0.00 84 1014.7
20260504230559 12 47 3.2 9.7 0.00 0.00 0.00 84 1014.8
20260504230100 12 45 1.6 6.4 0.00 0.00 0.00 84 1014.7
20260504225556 12 0 0.0 6.4 0.00 0.00 0.00 84 1014.8
20260504225058 12 0 0.0 6.4 0.00 0.00 0.00 84 1015.0
20260504224608 12 45 1.6 8.0 0.00 0.00 0.00 83 1014.9
20260504224056 12 0 1.6 8.0 0.00 0.00 0.00 83 1014.9
20260504223556 12 0 0.0 6.4 0.00 0.00 0.00 83 1014.8
20260504223059 12 0 0.0 6.4 0.00 0.00 0.00 83 1014.8
20260504222559 12 45 0.0 8.0 0.00 0.00 0.00 83 1014.8
20260504222102 12 45 1.6 8.0 0.00 0.00 0.00 83 1014.8
20260504221604 12 45 1.6 8.0 0.00 0.00 0.00 82 1014.9
20260504221100 12 45 1.6 14.5 0.00 0.00 0.00 82 1014.8
20260504220559 12 45 4.8 14.5 0.00 0.00 0.00 82 1015.0
20260504220057 12 50 0.0 11.3 0.00 0.00 0.00 82 1014.9
20260504215557 12 50 3.2 11.3 0.00 0.00 0.00 82 1015.1
20260504215056 12 51 3.2 14.5 0.00 0.00 0.00 82 1014.9
20260504214603 12 40 4.8 14.5 0.00 0.00 0.00 82 1015.0
20260504214056 12 30 4.8 14.5 0.00 0.00 0.00 82 1015.0
20260504213556 12 34 6.4 14.5 0.00 0.00 0.00 82 1014.9
20260504213105 12 48 4.8 14.5 0.00 0.00 0.00 82 1015.1
20260504212555 12 54 4.8 12.9 0.00 0.00 0.00 83 1015.0
20260504212059 12 33 3.2 12.9 0.00 0.00 0.00 83 1015.1
20260504211557 12 31 3.2 12.9 0.00 0.00 0.00 83 1015.0
20260504211056 12 0 0.0 11.3 0.00 0.00 0.00 83 1015.0
20260504210556 12 41 1.6 9.7 0.00 0.00 0.00 83 1015.0
20260504210105 12 41 1.6 9.7 0.00 0.00 0.00 83 1015.0
20260504205558 12 41 1.6 6.4 0.00 0.00 0.00 82 1015.1
20260504205058 12 42 1.6 6.4 0.00 0.00 0.00 82 1015.0
20260504204636 12 42 1.6 8.0 0.00 0.00 0.00 82 1014.9
20260504204056 12 43 1.6 9.7 0.00 0.00 0.00 82 1015.0
20260504203556 12 42 1.6 9.7 0.00 0.00 0.00 81 1014.9
20260504203059 13 43 3.2 9.7 0.00 0.00 0.00 81 1014.8
20260504202556 13 0 1.6 8.0 0.00 0.00 0.00 81 1014.8
20260504202100 13 0 1.6 8.0 0.00 0.00 0.00 81 1014.8
20260504201559 13 51 0.0 4.8 0.00 0.00 0.00 81 1014.8
20260504201059 13 51 0.0 6.4 0.00 0.00 0.00 81 1014.8
20260504200559 13 51 0.0 6.4 0.00 0.00 0.00 81 1014.8